Weather reports worldwide

Advertisment
Gogerddan, United Kingdom (99150): temperature & dewpoint: 21.05.2018 09:00:00 - 27.05.2018 09:00:00 (BST)Gogerddan, United Kingdom (99150): temperature -20cm & temperature -100cm: 21.05.2018 09:00:00 - 27.05.2018 09:00:00 (BST)Gogerddan, United Kingdom (99150): precipitation: 21.05.2018 09:00:00 - 27.05.2018 09:00:00 (BST)
Date & Time tt [°C] td [°C] tt -20cm [°C] tt -100cm [°C] rr [mm]
27.05.2018 09:00:00 - - - - -
27.05.2018 08:00:00 17,9 13,0 - - 0,0
27.05.2018 07:00:00 15,6 12,5 - - 0,0
27.05.2018 06:00:00 15,5 11,3 - - 0,0
27.05.2018 05:00:00 15,0 12,4 - - 0,4
27.05.2018 04:00:00 15,0 9,7 - - 0,0
27.05.2018 03:00:00 16,8 8,1 - - 0,0
27.05.2018 02:00:00 17,1 7,7 - - 0,0
27.05.2018 01:00:00 17,1 8,0 - - 0,0
27.05.2018 00:00:00 17,0 7,4 - - 0,0
26.05.2018 23:00:00 17,7 7,6 - - 0,0
26.05.2018 22:00:00 18,6 7,9 - - 0,0
26.05.2018 21:00:00 19,5 9,9 - - 0,0
26.05.2018 20:00:00 21,3 13,0 - - 0,0
26.05.2018 19:00:00 21,9 14,7 - - 0,0
26.05.2018 18:00:00 22,2 14,6 - - 0,0
26.05.2018 17:00:00 22,0 14,7 - - 0,0
26.05.2018 16:00:00 19,9 14,6 - - 0,0
26.05.2018 15:00:00 18,9 14,1 - - 0,0
26.05.2018 14:00:00 18,4 14,4 - - 0,0
26.05.2018 13:00:00 17,5 14,1 - - 0,2
26.05.2018 12:00:00 16,6 13,1 - - 0,0
26.05.2018 11:00:00 16,4 13,0 - - 0,0
26.05.2018 10:00:00 16,0 13,0 12,7 11,4 0,0
26.05.2018 09:00:00 15,6 12,9 - - 0,0
26.05.2018 08:00:00 15,2 12,6 - - 0,0
26.05.2018 07:00:00 14,6 12,6 - - 0,0
26.05.2018 06:00:00 13,9 12,9 - - 0,0
26.05.2018 05:00:00 13,8 13,1 - - 0,0
26.05.2018 04:00:00 13,8 12,7 - - 0,0
26.05.2018 03:00:00 13,9 12,9 - - 0,0
26.05.2018 02:00:00 14,5 12,6 - - 0,0
26.05.2018 01:00:00 14,9 13,1 - - 0,0
26.05.2018 00:00:00 13,6 12,6 - - 0,0
25.05.2018 23:00:00 13,7 12,1 - - 0,0
25.05.2018 22:00:00 14,2 12,7 - - 0,0
25.05.2018 21:00:00 14,6 12,5 - - 0,0
25.05.2018 20:00:00 14,5 12,5 - - 0,0
25.05.2018 19:00:00 14,5 12,4 - - 0,0
25.05.2018 18:00:00 14,6 12,5 - - 0,0
25.05.2018 17:00:00 15,1 12,6 - - 0,0
25.05.2018 16:00:00 14,7 13,3 - - 0,0
25.05.2018 15:00:00 14,3 12,1 - - 0,0
25.05.2018 14:00:00 14,5 12,8 - - 0,4
25.05.2018 13:00:00 15,4 13,0 - - 0,0
25.05.2018 12:00:00 15,1 13,3 - - 0,4
25.05.2018 11:00:00 15,3 12,2 - - 0,0
25.05.2018 10:00:00 13,6 12,3 12,5 11,2 0,0
25.05.2018 09:00:00 12,5 12,2 - - 0,0
25.05.2018 08:00:00 11,9 11,7 - - 0,6
25.05.2018 07:00:00 11,6 11,3 - - 1,8
25.05.2018 06:00:00 11,5 11,2 - - 1,6
25.05.2018 05:00:00 11,0 10,6 - - 0,0
25.05.2018 04:00:00 10,5 10,1 - - 0,0
25.05.2018 03:00:00 10,1 9,7 - - 0,0
25.05.2018 02:00:00 10,9 10,4 - - 0,0
25.05.2018 01:00:00 10,9 10,5 - - 0,0
25.05.2018 00:00:00 9,9 9,1 - - 0,0
24.05.2018 23:00:00 11,7 10,9 - - 0,0
24.05.2018 22:00:00 13,5 12,2 - - 0,0
24.05.2018 21:00:00 14,5 12,7 - - 0,0
24.05.2018 20:00:00 14,8 12,8 - - 0,0
24.05.2018 19:00:00 15,2 13,0 - - 0,2
24.05.2018 18:00:00 15,8 13,0 - - 0,2
24.05.2018 17:00:00 16,6 12,5 - - 0,0
24.05.2018 16:00:00 17,8 10,4 - - 0,0
24.05.2018 15:00:00 17,4 11,6 - - 0,0
24.05.2018 14:00:00 15,9 11,3 - - 0,0
24.05.2018 13:00:00 14,6 11,0 - - 0,0
24.05.2018 12:00:00 14,0 9,8 - - 0,0
24.05.2018 11:00:00 14,0 9,9 - - 0,0
24.05.2018 10:00:00 13,2 9,0 12,7 11,2 0,0
24.05.2018 09:00:00 13,2 8,1 - - 0,0
24.05.2018 08:00:00 13,0 7,8 - - 0,0
24.05.2018 07:00:00 13,4 7,4 - - 0,0
24.05.2018 06:00:00 12,9 7,4 - - 0,0
24.05.2018 05:00:00 13,0 7,8 - - 0,0
24.05.2018 04:00:00 13,2 8,1 - - 0,0
24.05.2018 03:00:00 14,1 8,0 - - 0,0
24.05.2018 02:00:00 14,3 8,2 - - 0,0
24.05.2018 01:00:00 13,2 9,8 - - 0,0
24.05.2018 00:00:00 14,6 10,0 - - 0,0
23.05.2018 23:00:00 15,0 10,2 - - 0,0
23.05.2018 22:00:00 14,9 9,8 - - 0,0
23.05.2018 21:00:00 18,3 9,6 - - 0,0
23.05.2018 20:00:00 20,6 9,5 - - 0,0
23.05.2018 19:00:00 22,0 8,8 - - 0,0
23.05.2018 18:00:00 22,5 8,4 - - 0,0
23.05.2018 17:00:00 22,6 9,3 - - 0,0
23.05.2018 16:00:00 22,7 10,4 - - 0,0
23.05.2018 15:00:00 21,5 10,3 - - 0,0
23.05.2018 14:00:00 21,4 9,8 - - 0,0
23.05.2018 13:00:00 20,7 8,9 - - 0,0
23.05.2018 12:00:00 20,1 10,5 - - 0,0
23.05.2018 11:00:00 18,3 10,2 - - 0,0
23.05.2018 10:00:00 16,0 9,3 12,2 11,0 0,0
23.05.2018 09:00:00 14,9 8,0 - - 0,0
23.05.2018 08:00:00 12,3 9,6 - - 0,0
23.05.2018 07:00:00 8,4 8,0 - - 0,0
23.05.2018 06:00:00 5,5 4,8 - - 0,0
23.05.2018 05:00:00 6,6 5,9 - - 0,0
23.05.2018 04:00:00 6,1 5,4 - - 0,0
23.05.2018 03:00:00 7,4 6,8 - - 0,0
23.05.2018 02:00:00 8,0 7,5 - - 0,0
23.05.2018 01:00:00 7,7 7,2 - - 0,0
23.05.2018 00:00:00 8,7 8,0 - - 0,0
22.05.2018 23:00:00 9,7 8,8 - - 0,0
22.05.2018 22:00:00 11,2 9,8 - - 0,0
22.05.2018 21:00:00 13,0 10,6 - - 0,0
22.05.2018 20:00:00 15,2 11,0 - - 0,0
22.05.2018 19:00:00 17,0 11,3 - - 0,0
22.05.2018 18:00:00 17,1 11,8 - - 0,0
22.05.2018 17:00:00 16,8 12,1 - - 0,0
22.05.2018 16:00:00 17,2 12,1 - - 0,0
22.05.2018 15:00:00 16,4 11,7 - - 0,0
22.05.2018 14:00:00 16,9 11,6 - - 0,0
22.05.2018 13:00:00 16,1 11,6 - - 0,0
22.05.2018 12:00:00 16,0 11,6 - - 0,0
22.05.2018 11:00:00 15,4 11,3 - - 0,0
22.05.2018 10:00:00 14,7 10,9 12,0 10,9 0,0
22.05.2018 09:00:00 13,0 10,2 - - 0,0
22.05.2018 08:00:00 11,3 10,3 - - 0,0
22.05.2018 07:00:00 9,8 9,2 - - 0,0
22.05.2018 06:00:00 8,9 8,3 - - 0,0
22.05.2018 05:00:00 9,1 8,3 - - 0,0
22.05.2018 04:00:00 8,5 7,6 - - 0,0
22.05.2018 03:00:00 8,4 7,4 - - 0,0
22.05.2018 02:00:00 8,7 7,4 - - 0,0
22.05.2018 01:00:00 8,4 7,2 - - 0,0
22.05.2018 00:00:00 8,7 7,4 - - 0,0
21.05.2018 23:00:00 9,9 8,2 - - 0,0
21.05.2018 22:00:00 11,6 9,2 - - 0,0
21.05.2018 21:00:00 14,7 10,1 - - 0,0
21.05.2018 20:00:00 16,2 9,8 - - 0,0
21.05.2018 19:00:00 17,5 9,3 - - 0,0
21.05.2018 18:00:00 18,1 8,0 - - 0,0
21.05.2018 17:00:00 17,2 10,1 - - 0,0
21.05.2018 16:00:00 18,3 10,2 - - 0,0
21.05.2018 15:00:00 17,8 9,8 - - 0,0
21.05.2018 14:00:00 17,1 10,5 - - 0,0
21.05.2018 13:00:00 16,2 10,5 - - 0,0
21.05.2018 12:00:00 18,3 9,8 - - 0,0
21.05.2018 11:00:00 15,4 8,7 - - 0,0
21.05.2018 10:00:00 17,1 10,6 11,7 10,9 0,0
21.05.2018 09:00:00 15,6 9,0 - - 0,0

tt = temperature
td = dewpoint
tt -20cm = temperature -20cm
tt -100cm = temperature -100cm
rr = precipitation

Next stations